www.pogodaiklimat.ru

Погода и климат >> Архив погоды >> Аргентина >> Сан-Мигель-де-Тукуман


ПОГОДА в Сан-Мигель-де-Тукумане

  • Прогноз погоды в Сан-Мигель-де-Тукумане
  • Монитор погоды в Сан-Мигель-де-Тукумане

АРХИВ ПОГОДЫ в Сан-Мигель-де-Тукумане

Время (UTC), дата Ветер
(напр.,м/с)
 
Видим.   Явления Облачность Т
(С)
Тd
(С)
f
(%)
Тe
(С)
Тes
(С)
Комфортность P
(гПа)
Po
(гПа)
Тmin
(С)
Tmax
(С)
R
(мм)
R24
(мм)
S
(см)
18 13.07 Ю 2 6000 м дым 10/10 1200 м
[Sc]
+15.0 +8.9 67 +15 +15 1013.5 961.6
21 13.07 штиль 0 6000 м дым 10/10 1200 м
[Sc]
+14.4 +10.3 76 +14 +14 1013.2 961.2
00 14.07 штиль 0 6000 м дым 10/10 1200 м
[Sc]
+13.7 +10.0 78 +13 +13 1015.9 963.7 +13.7 +15.8
03 14.07 З 2 6000 м дым 10/6 1200 м
[Sc Ac As]
+13.4 +10.6 83 +13 +13 1018.3 966.0
06 14.07 штиль 0 6000 м дым 10/10 1200 м
[Sc]
+13.0 +11.0 88 +12 +12 1018.1 965.8
09 14.07 штиль 0 6000 м дым 10/10 1200 м
[Sc]
+12.6 +10.7 88 +12 +12 1017.5 965.2
12 14.07 З 3 2000 м дым 4/0
[Ac As Cs]
+11.4 +9.7 89 +10 +10 1018.9 966.2 +10.7 +13.7
15 14.07 З 3 6000 м дым 3/1 1050 м
[Cu hum Cs]
+17.1 +10.6 66 +17 +24 1017.9 965.8
18 14.07 Ю 2 6000 м дым 8/3 1050 м
[Cu hum Cs]
+19.0 +11.2 61 +21 +26 комфорт 1014.4 962.6
21 14.07 Ю 2 6000 м дым 10/10 1050 м
[Sc]
+17.2 +11.5 69 +18 +18 1014.3 962.4
00 15.07 штиль 0 6000 м дым 10/10 1050 м
[Sc]
+15.8 +12.3 80 +16 +16 1016.7 964.4 +11.4 +19.0
03 15.07 штиль 0 6000 м дым 10/10 1200 м
[Sc]
+15.4 +12.8 84 +15 +15 1017.4 965.4
06 15.07 ЮЗ 3 6000 м дым 10/10 1200 м
[Sc]
+14.5 +12.6 88 +14 +14 1017.8 966.0
09 15.07 З 3 6000 м слаб. морось туман 10/6 270 м
[Frnb As op]
+13.6 +12.4 92 +13 +13 1019.0 966.9
12 15.07 С 2 3000 м дымка 4/4 1200 м
[Sc]
+12.6 +11.5 93 +12 +12 1021.4 969.0 +11.4 +15.8 0.0
15 15.07 З 3 6000 м дым 6/0
[Ac trans]
+18.2 +11.5 65 +19 +24 1022.8 970.8
18 15.07 ЮЗ 2 7000 м дым 9/6 1050 м
[Cu hum Ac trans]
+20.7 +10.6 52 +23 +25 комфорт 1020.8 969.0
21 15.07 В 3 7000 м дым 10/3 1050 м
[Sc Ac As]
+19.0 +11.2 61 +20 +20 1020.9 968.9
00 16.07 СВ 3 7000 м дым 9/0
[Ac As]
+16.0 +11.9 77 +16 +16 1022.5 970.0 +12.6 +21.4
03 16.07 С 2 8000 м дым 8/0
[Ac As]
+14.2 +10.9 81 +14 +14 1022.9 970.8
06 16.07 С 3 8000 м дым 9/9 1200 м
[Sc]
+14.2 +10.1 76 +13 +13 1021.2 969.4
09 16.07 В 2 8000 м дым 10/10 1200 м
[Sc]
+13.8 +11.3 85 +13 +13 1020.4 968.4
12 16.07 В 3 7000 м дымка туман 10/5 1050 м
[Sc Ac As]
+13.8 +12.4 91 +13 +13 1020.9 968.6 +13.5 +16.0
15 16.07 С 2 4000 м дымка туман 10/4 1050 м
[Sc Ac As]
+16.0 +12.5 80 +16 +18 1020.6 968.4
18 16.07 ЮЗ 5 5000 м дым 10/6 1200 м
[Sc Ac As]
+15.7 +12.7 82 +14 +15 1017.8 965.7
21 16.07 ЮЗ 3 6000 м дым 9/0
[Ac As]
+12.3 +12 +12 1017.8 965.6
00 17.07 штиль 0 6000 м дым 9/0
[Ac trans]
+12.9 +11.6 92 +12 +12 1019.7 967.2 +12.9 +18.6
03 17.07 С 3 800 м туман 3/0
[Ac trans]
+12.0 +11.3 95 +10 +10 1019.7 967.3
06 17.07 С 3 4000 м дымка {туман} туман ясно +10.8 +9.3 90 +9 +9 1018.5 966.1
09 17.07 В 2 6000 м дымка туман ясно +10.0 +8.0 87 +8 +8 1017.5 965.0
12 17.07 З 2 7000 м дымка ясно +9.4 +7.8 90 +8 +8 1018.7 965.8 +8.8 +12.9
15 17.07 ЮЗ 3 4000 м дымка туман ясно +16.0 +12.7 81 +16 +23 1018.2 965.8
18 17.07 штиль 0 5000 м дым ясно +20.6 +12.9 61 +23 +33 комфорт 1014.7 962.9
21 17.07 ЮЗ 3 5000 м дым ясно +20.7 +13.3 63 +24 +24 комфорт 1013.3 961.4
00 18.07 штиль 0 5000 м дым ясно +14.3 +11.0 81 +14 +14 1014.7 962.2 +9.4 +22.2
03 18.07 штиль 0 7000 м дым ясно +11.4 +9.3 87 +11 +11 1013.4 961.3
06 18.07 С 4 7000 м ясно +9.6 +8.4 92 +7 +7 1011.8 960.0
09 18.07 С 5 8000 м дым ясно +11.8 +8.5 80 +9 +9 1010.0 958.5
12 18.07 З 2 8000 м дым 1/1 1050 м
[Cu hum]
+10.6 +8.2 85 +9 +10 1013.3 961.0 +9.6 +14.3
15 18.07 Ю 3 8000 м дым 1/1 1050 м
[Cu hum]
+17.8 +12.2 70 +18 +24 1015.4 963.4
18 18.07 Ю 5 8000 м дым 1/1 1050 м
[Cu hum]
+21.6 +12.4 56 +24 +28 комфорт 1015.7 963.8
21 18.07 ЮЗ 2 8000 м дым 4/1 1000 м
[Sc Ac trans]
+20.5 +13.2 63 +23 +24 комфорт 1017.5 965.6
00 19.07 ЮЗ 4 7000 м дым 6/3 1200 м
[Sc Ac As]
+18.9 +11.3 61 +20 +20 1020.2 967.8 +10.6 +22.5
03 19.07 штиль 0 7000 м дым 10/0
[Ac As]
+17.0 +11.7 71 +17 +17 1022.6 970.6
06 19.07 штиль 0 7000 м дым 10/6 1200 м
[Sc Ac As]
+15.2 +10.0 71 +15 +15 1021.7 970.0
09 19.07 СВ 3 7000 м дым ясно +10.6 +7.8 83 +9 +9 1019.2 967.0
12 19.07 СВ 3 7000 м дымка туман ясно +11.4 +7.8 79 +10 +10 1018.6 966.5 +9.2 +18.9
15 19.07 В 4 6000 м дым ясно +17.0 +8.3 57 +17 +22 1017.6 965.8
18 19.07 В 4 6000 м дым ясно +21.0 +10.3 50 +23 +28 комфорт 1013.2 961.8
21 19.07 Ю 3 6000 м дым 3/3 900 м
[Cu hum]
+19.6 +11.5 59 +21 +21 комфорт 1012.4 960.6
00 20.07 штиль 0 6000 м дым ясно +14.0 +9.1 72 +14 +14 1012.2 960.0 +9.2 +21.4
03 20.07 С 3 6000 м дым ясно +11.3 +8.8 85 +10 +10 1011.0 959.0
06 20.07 штиль 0 8000 м дым ясно +10.2 +8.6 90 +9 +9 1008.3 956.8
09 20.07 С 2 8000 м дым ясно +8.7 +7.3 91 +7 +7 1007.4 955.7
12 20.07 СЗ 3 7000 м дымка туман ясно +9.9 +9.9 100 +8 +9 1009.0 956.8 +7.2 +14.0
15 20.07 штиль 0 6000 м дым ясно +17.3 +11.6 69 +17 +29 опасность
простуды
1008.8 957.0

 

Местоположение метеостанции Сан-Мигель-де-Тукуман (Аргентина): широта -26.85 долгота -65.09 высота над уровнем моря 450 м.

В архиве по умолчанию представлена погода в Сан-Мигель-де-Тукумане за последнюю неделю. Архивные данные за месяц целиком и за предыдущие месяцы, начиная с января 2011 года, Вы можете получить, выбрав интересующий диапазон дат из раскрывающегося списка и нажав кнопку "Ввод!".


*Определитесь, кто Вы:
робот инопланетянин человек

Внимание! Время в таблицах - всемирное. Для получения местного времени необходимо прибавить поправку, которая равна -3 ч.

Смотрите также архив погоды в соседних городах и на ближайших метеорологических станциях:

Погода в Сантьяго-дель-Эстеро (Аргентина) (128 км)
Погода в Сан-Фернандо-дель-Валье-де-Катамарке (Аргентина) (206 км)
Погода в Сальте (Аргентина) (226 км)
Погода в Сан-Сальвадор-де-Жужуе (Аргентина) (275 км)
Погода в Ла-Риохе (Аргентина) (328 км)
Погода в Вилла де Мария дель Рио Секо (Аргентина) (366 км)
Погода в Чамикале (Аргентина) (407 км)
Погода в Сан-Рамон-де-ла-Нуэва-Оране (Аргентина) (419 км)
Погода в Сересе (Аргентина) (456 км)
Погода в Пресиденсиа-Роке-Саэнс-Пеньи (Аргентина) (458 км)

Пояснения к столбцам:

Ветер - указаны скорость ветра в м/с - средняя за 10 мин, порывы в срок и между сроками (в фигурных скобках) и направление, откуда дует ветер: С - северный, СВ - северо-восточный, В - восточный, ЮВ - юго-восточный, Ю - южный, ЮЗ - юго-западный, З - западный, СЗ - северо-западный.
Видимость - горизонтальная дальность видимости в метрах или километрах. При видимости от 1 до 10 км при отсутствии осадков обычно наблюдается дымка, при ухудшении видимости до 1 км и менее - туман. В сухую погоду видимость может ухудшаться дымом, пылью или мглою.
Явления - указаны атмосферные явления, наблюдавшиеся в срок или в последний час перед сроком; фигурными скобками обозначены явления, наблюдавшиеся между сроками (за 1-3 часа до срока); квадратными скобками обозначены град или гололедные отложения с указанием их диаметра в мм.
Облачность - указаны через наклонную черту общая и нижняя облачность в баллах и высота нижней границы облаков в метрах; квадратными скобками обозначены формы облаков: Ci - перистые, Cs - перисто-слоистые, Cc - перисто-кучевые, Ac - высококучевые, As - высокослоистые, Sc - слоисто-кучевые, Ns - слоисто-дождевые, Cu - кучевые, Cb - кучево-дождевые. Подробнее классификацию облаков см. в Атласе облаков (PDF).
T - Температура воздуха - температура, измеренная на высоте 2 м над землей.
Td - Температура точки росы - температура, при понижении до которой содержащийся в воздухе водяной пар достигнет насыщения.
f - Относительная влажность воздуха - влажноcть воздуха, измеренная на высоте 2 м над землей.
Te - Эффективная температура - температура, которую ощущает одетый по сезону человек в тени. Характеристика душности погоды. При расчете учитывается влияние влажности воздуха и скорости ветра на теплоощущения человека.
Tes - Эффективная температура на солнце - температура, которую ощущает человек, с поправкой на солнечный нагрев. Характеристика знойности погоды. Зависит от высоты солнца над горизонтом, облачности и скорости ветра. Ночью, в пасмурную погоду, а также при ветре 12 м/с и более поправка равна нулю.
P - Атмосферное давление - приведенное к уровню моря атмосферное давление.
Po - Атмосферное давление - измеренное на уровне метеостанции атмосферное давление.
Tmin - Минимальная температура - минимум температуры воздуха на высоте 2 м над землей.
Tmax - Максимальная температура - максимум температуры воздуха на высоте 2 м над землей.
R - Количество осадков - Количество выпавших осадков за период времени, мм. При наведении курсора мыши на число - период времени, за который выпало указанное количество осадков.
R24 - Количество осадков - Количество выпавших осадков за 24 часа, мм.
S - Снежный покров - Высота снежного покрова, см. При наведении курсора мыши на число - состояние снежного покрова и степень покрытия местности в баллах.